Showing default

GSAT 17, 42815

Orbit data source: Space-Track

GSAT 17, 42815 is a payload satellite owned by ISRO (IN) in GEO that was launched on Wed, 28 Jun 2017 UTC via an ARIANE 5ECA launch vehicle from the French Guiana (FRGUI). Payload-class satellites include a variety of spacecraft equipped with specific instruments for various scientific and technological missions. These include communications satellites like Starlink; space stations such as the ISS; scientific satellites like the Hubble; Earth observation satellites from companies like Planet Labs, Umbra, and HawkEye 360; GPS; miniature CubeSats for education and research; and military/defense satellites.

Not visible in the next 10 days
Identifier
42815, 2017-040B
Orbit
GEO
Country
Flag of ININ / IND
Related business
Manufacturer
ISRO SAC/Banga
Mission
Operational Civil Communications
Bus & Motor
I3K, ISRO LAM
Mass
3,477 kg wet, ~1,400 kg dry
Launch date (UTC)
2017-06-28 (9 years ago)
Launch vehicle
ARIANE 5ECA
Launch site
French Guiana (FRGUI)
Object type
Payload
Rocket body
Debris
Shape & HBR
Box + 2 Pan, 10.0 m
Radar Cross Section
15.081 m², Large (>1 m²)

Expand to show TLE details & history
Last TLE update: 7 hours ago

TLE from 7 hours ago
0 GSAT 17
1 42815U 17040B   26071.59030301  .00000000  00000-0  00000-0 0  9999
2 42815   0.0187 137.1196 0004531 157.2445 181.8919  1.00269166 31829
Epoch: 2026-03-12T14:10Z
TLE epoch observation values (Epoch: 2026-03-12T14:10:02.180Z)
Latitude
-0.01684°
Longitude
93.52606°
Altitude
35,805.897 km
Speed
3.073 km/s
True Right ascension
07h 45m 05s
True Declination
0° 01' 01"
Sunlit
Object was in daylight at epoch
Visualization orbit readout
Latitude
Unknown
Longitude
Unknown
Altitude
Unknown
Speed
Unknown
Apparent Right ascension
Unknown
Apparent Declination
Unknown
Sunlit
N/A
Visualization observer readout
Local Sidereal Time
01:46:49
Azimuth
Unknown
Elevation
Unknown
Doppler factor
Unknown
Orbital elements
Apogee altitude
35,807.505 km
Perigee altitude
35,769.294 km
Semi-major axis
42,166.537 km
Eccentricity
0.00045
Inclination
0.0187°
RAAN
137.1196°
Arg. of periapsis
157.2445°
True anomaly
181.89019°
Mean anomaly
181.8919°
Eccentric anomaly
181.89104°
Mean motion
0.25066 °/min
Orbital period
1,436.19 mins
BSTAR
0
Loading maneuver chart data...
Computing Atmospheric mass density...
Loading historical data...
Loading historical data...
Loading historical data...
Loading historical data...
Loading historical data...
Loading historical data...
Loading historical data...
Other satellites on launch #40 in the year 2017 (2017-06-28 UTC)

Documentation

Showing up to 5 results
|